Location: Newark
(41.0400°S, 62.7845°W)
Time: 00:12:24
(UTC+00:00)

Vanguard 2 - Pass Details

Date: 10 December 2021
Orbit: 554 x 2935 km, 32.9° (Epoch: 27 January)

Event Time Altitude Azimuth Distance (km) Brightness Sun altitude
Rises 23:59:41 0° 345° (NNW) 5,637 11.7 -4.6°
Reaches altitude 10° 00:04:16 10° 358° (N) 4,985 11.3 -5.3°
Maximum altitude 00:15:00 24° 44° (NE) 4,516 10.8 -6.9°
Drops below altitude 10° 00:27:13 10° 87° (E) 5,776 11.5 -8.7°
Sets 00:33:01 0° 99° (E) 6,725 12.0 -9.5°
